• In Hungary
  • List of Countries
  • For 7 days
  • Water Temperature
  • Satellite Maps
  • Weather Map
  • News
  • Weather Widgets
  • user-avatar
    Login

    Hourly Weather Anzio

    Today, 18 January, Thursday

    Time Temperature Precipitation Wind Pressure Humidity
    00:00 +5°C° 0 mm 6 mps 757 mmHg 46%
    01:00 +5°C° 0 mm 7 mps 758 mmHg 44%
    02:00 +5°C° 0 mm 6 mps 758 mmHg 44%
    03:00 +4°C° 0 mm 6 mps 758 mmHg 44%
    04:00 +5°C° 0 mm 5 mps 759 mmHg 44%
    05:00 +5°C° 0 mm 4 mps 759 mmHg 43%
    06:00 +5°C° 0 mm 3 mps 759 mmHg 41%
    07:00 +5°C° 0 mm 2 mps 760 mmHg 40%
    08:00 +7°C° 0 mm 2 mps 760 mmHg 38%
    09:00 +8°C° 0 mm 2 mps 760 mmHg 37%
    10:00 +10°C° 0 mm 2 mps 760 mmHg 35%
    11:00 +11°C° 0 mm 3 mps 760 mmHg 38%
    12:00 +12°C° 0 mm 4 mps 759 mmHg 42%
    13:00 +13°C° 0 mm 5 mps 759 mmHg 45%
    14:00 +12°C° 0 mm 5 mps 759 mmHg 53%
    15:00 +11°C° 0 mm 6 mps 758 mmHg 61%
    16:00 +11°C° 0 mm 6 mps 758 mmHg 69%
    17:00 +11°C° 0.1 mm 6 mps 758 mmHg 73%
    18:00 +10°C° 0.1 mm 6 mps 758 mmHg 77%
    19:00 +10°C° 0.1 mm 6 mps 758 mmHg 80%
    20:00 +10°C° 0.1 mm 6 mps 758 mmHg 82%
    21:00 +10°C° 0.1 mm 6 mps 758 mmHg 84%
    22:00 +10°C° 0.1 mm 6 mps 758 mmHg 86%
    23:00 +10°C° 0.1 mm 5 mps 758 mmHg 87%

    Tomorrow, 19 January, Friday

    Time Temperature Precipitation Wind Pressure Humidity
    00:00 +10°C° 0.1 mm 5 mps 757 mmHg 88%
    01:00 +10°C° 0.1 mm 5 mps 757 mmHg 89%
    02:00 +10°C° 0.1 mm 5 mps 757 mmHg 89%
    03:00 +10°C° 0.1 mm 5 mps 757 mmHg 90%
    04:00 +10°C° 0.1 mm 5 mps 756 mmHg 90%
    05:00 +10°C° 0.1 mm 5 mps 756 mmHg 90%
    06:00 +10°C° 0.1 mm 5 mps 756 mmHg 90%
    07:00 +10°C° 0.1 mm 5 mps 756 mmHg 90%
    08:00 +12°C° 0.1 mm 5 mps 756 mmHg 89%
    09:00 +12°C° 0.1 mm 5 mps 756 mmHg 88%
    10:00 +12°C° 0.1 mm 5 mps 756 mmHg 87%
    11:00 +12°C° 0.1 mm 5 mps 755 mmHg 86%
    12:00 +12°C° 0.1 mm 5 mps 755 mmHg 85%
    13:00 +12°C° 0.1 mm 4 mps 755 mmHg 84%
    14:00 +12°C° 0.1 mm 4 mps 755 mmHg 85%
    15:00 +12°C° 0.1 mm 4 mps 754 mmHg 86%
    16:00 +12°C° 0.1 mm 4 mps 754 mmHg 87%
    17:00 +12°C° 0.1 mm 4 mps 754 mmHg 88%
    18:00 +12°C° 0.1 mm 4 mps 754 mmHg 89%
    19:00 +12°C° 0.1 mm 4 mps 755 mmHg 90%
    20:00 +12°C° 0.1 mm 4 mps 755 mmHg 89%
    21:00 +12°C° 0.1 mm 4 mps 755 mmHg 89%
    22:00 +12°C° 0.1 mm 4 mps 755 mmHg 89%
    23:00 +11°C° 0.1 mm 4 mps 754 mmHg 88%

    Day after tomorrow, 20 January, Saturday

    Time Temperature Precipitation Wind Pressure Humidity
    00:00 +11°C° 0.1 mm 3 mps 754 mmHg 88%
    01:00 +11°C° 0.1 mm 3 mps 754 mmHg 87%
    02:00 +10°C° 0 mm 3 mps 754 mmHg 87%
    03:00 +10°C° 0 mm 3 mps 754 mmHg 87%
    04:00 +9°C° 0 mm 2 mps 754 mmHg 87%
    05:00 +9°C° 0 mm 2 mps 754 mmHg 88%
    06:00 +9°C° 0 mm 2 mps 754 mmHg 88%
    07:00 +9°C° 0 mm 2 mps 754 mmHg 88%
    08:00 +9°C° 0 mm 2 mps 754 mmHg 84%
    09:00 +10°C° 0 mm 2 mps 754 mmHg 81%
    10:00 +12°C° 0 mm 2 mps 754 mmHg 77%
    11:00 +13°C° 0 mm 2 mps 754 mmHg 73%
    12:00 +14°C° 0 mm 1 mps 754 mmHg 69%
    13:00 +15°C° 0 mm 1 mps 753 mmHg 65%
    14:00 +14°C° 0 mm 2 mps 753 mmHg 66%
    15:00 +14°C° 0 mm 2 mps 753 mmHg 66%
    16:00 +14°C° 0 mm 2 mps 753 mmHg 66%
    17:00 +13°C° 0 mm 2 mps 753 mmHg 69%
    18:00 +11°C° 0 mm 3 mps 753 mmHg 73%
    19:00 +10°C° 0 mm 3 mps 753 mmHg 76%
    20:00 +10°C° 0 mm 3 mps 753 mmHg 76%
    21:00 +10°C° 0 mm 3 mps 753 mmHg 77%
    22:00 +9°C° 0 mm 3 mps 753 mmHg 77%
    23:00 +10°C° 0.3 mm 4 mps 752 mmHg 79%

    21 January, Sunday

    Time Temperature Precipitation Wind Pressure Humidity
    00:00 +9°C° 0.3 mm 5 mps 751 mmHg 80%
    01:00 +9°C° 0.3 mm 6 mps 751 mmHg 82%
    02:00 +9°C° 1.2 mm 6 mps 750 mmHg 84%
    03:00 +9°C° 1.2 mm 6 mps 750 mmHg 85%
    04:00 +9°C° 1.2 mm 6 mps 749 mmHg 86%
    05:00 +8°C° 0.1 mm 6 mps 750 mmHg 86%
    06:00 +8°C° 0.1 mm 7 mps 750 mmHg 86%
    07:00 +8°C° 0.1 mm 7 mps 751 mmHg 85%
    08:00 +7°C° 0 mm 8 mps 751 mmHg 79%
    09:00 +8°C° 0 mm 9 mps 752 mmHg 72%
    10:00 +8°C° 0 mm 10 mps 753 mmHg 65%
    11:00 +9°C° 0 mm 10 mps 754 mmHg 60%
    12:00 +10°C° 0 mm 9 mps 755 mmHg 55%
    13:00 +11°C° 0 mm 8 mps 755 mmHg 50%
    14:00 +10°C° 0 mm 8 mps 756 mmHg 49%
    15:00 +10°C° 0 mm 8 mps 756 mmHg 47%
    16:00 +9°C° 0 mm 7 mps 757 mmHg 46%
    17:00 +8°C° 0 mm 7 mps 757 mmHg 48%
    18:00 +7°C° 0 mm 6 mps 758 mmHg 49%
    19:00 +6°C° 0 mm 5 mps 759 mmHg 50%
    20:00 +5°C° 0 mm 5 mps 759 mmHg 52%
    21:00 +5°C° 0 mm 4 mps 760 mmHg 54%
    22:00 +4°C° 0 mm 3 mps 760 mmHg 56%
    23:00 +4°C° 0 mm 3 mps 760 mmHg 57%

    22 January, Monday

    Time Temperature Precipitation Wind Pressure Humidity
    00:00 +4°C° 0 mm 3 mps 760 mmHg 57%
    01:00 +5°C° 0 mm 2 mps 760 mmHg 58%
    02:00 +5°C° 0 mm 2 mps 760 mmHg 58%
    03:00 +5°C° 0 mm 2 mps 760 mmHg 58%
    04:00 +5°C° 0 mm 2 mps 759 mmHg 57%
    05:00 +5°C° 0 mm 2 mps 759 mmHg 57%
    06:00 +5°C° 0 mm 2 mps 759 mmHg 56%
    07:00 +5°C° 0 mm 2 mps 759 mmHg 55%
    08:00 +6°C° 0 mm 2 mps 759 mmHg 52%
    09:00 +7°C° 0 mm 2 mps 760 mmHg 49%
    10:00 +9°C° 0 mm 2 mps 760 mmHg 46%
    11:00 +10°C° 0 mm 2 mps 760 mmHg 45%
    12:00 +12°C° 0 mm 2 mps 760 mmHg 43%
    13:00 +13°C° 0 mm 2 mps 760 mmHg 42%
    14:00 +13°C° 0 mm 2 mps 760 mmHg 46%
    15:00 +13°C° 0 mm 2 mps 760 mmHg 50%
    16:00 +12°C° 0 mm 3 mps 760 mmHg 54%
    17:00 +12°C° 0 mm 2 mps 760 mmHg 57%
    18:00 +10°C° 0 mm 2 mps 761 mmHg 60%
    19:00 +9°C° 0 mm 2 mps 761 mmHg 63%
    20:00 +8°C° 0 mm 2 mps 761 mmHg 64%
    21:00 +8°C° 0 mm 2 mps 762 mmHg 64%
    22:00 +9°C° 0 mm 1 mps 762 mmHg 65%
    23:00 +9°C° 0 mm 1 mps 762 mmHg 65%

    23 January, Tuesday

    Time Temperature Precipitation Wind Pressure Humidity
    00:00 +9°C° 0 mm 1 mps 763 mmHg 65%
    01:00 +7°C° 0 mm 2 mps 763 mmHg 65%
    02:00 +7°C° 0 mm 2 mps 763 mmHg 64%
    03:00 +8°C° 0 mm 1 mps 763 mmHg 64%
    04:00 +8°C° 0 mm 1 mps 763 mmHg 63%
    05:00 +8°C° 0 mm 1 mps 763 mmHg 62%
    06:00 +8°C° 0 mm 1 mps 763 mmHg 61%
    07:00 +8°C° 0 mm 1 mps 764 mmHg 61%
    08:00 +10°C° 0 mm 1 mps 764 mmHg 58%
    09:00 +11°C° 0 mm 1 mps 764 mmHg 56%
    10:00 +13°C° 0 mm 1 mps 765 mmHg 54%
    11:00 +14°C° 0 mm 1 mps 765 mmHg 51%
    12:00 +15°C° 0 mm 1 mps 764 mmHg 48%
    13:00 +16°C° 0 mm 1 mps 764 mmHg 46%
    14:00 +16°C° 0 mm 1 mps 764 mmHg 50%
    15:00 +15°C° 0 mm 1 mps 765 mmHg 53%
    16:00 +15°C° 0 mm 1 mps 765 mmHg 57%
    17:00 +14°C° 0 mm 1 mps 765 mmHg 60%
    18:00 +13°C° 0 mm 1 mps 765 mmHg 63%
    19:00 +11°C° 0 mm 1 mps 765 mmHg 66%
    20:00 +11°C° 0 mm 1 mps 765 mmHg 67%
    21:00 +11°C° 0 mm 1 mps 766 mmHg 68%
    22:00 +11°C° 0 mm 1 mps 766 mmHg 68%
    23:00 +11°C° 0 mm 1 mps 766 mmHg 68%
    Show more